Regional Weather Roundup
Issued by NWS

Home | Current Version | Previous Version | Text Only | Print | Product List | Glossary On
Versions: 1 2 3 4 5 6 7 8 9 10 11 12 13 14 15 16 17 18 19 20 21 22 23 24 25 26 27
000
ASUS42 KTBW 210916
RWRFL
FLORIDA REGIONAL WEATHER ROUNDUP
NATIONAL WEATHER SERVICE TAMPA BAY RUSKIN FL
500 AM EDT SAT APR 21 2018

NOTE: "FAIR" INDICATES FEW OR NO CLOUDS BELOW 12,000 FEET WITH NO
SIGNIFICANT WEATHER AND/OR OBSTRUCTIONS TO VISIBILITY.

FLZ001>010-012>015-112-114-115-211000-
PANHANDLE FLORIDA

CITY           SKY/WX    TMP DP  RH WIND       PRES   REMARKS
PENSACOLA      MOCLDY    62  51  67 E7        30.16S
PENSACOLA NAS  MOCLDY    67  56  67 E15       30.15S
MILTON NAS     FAIR      55  47  74 E7        30.18R
CRESTVIEW      FAIR      48  45  89 CALM      30.20R
DUKE FIELD     FAIR      53  45  75 CALM      30.18R
VALPARAISO     PTCLDY    60  47  61 NE5       30.16S
MARY ESTHER    PTCLDY    64  53  67 NE5       30.16R
TRI COUNTY     CLOUDY    54  50  86 N5        30.20S
PANAMA CITY    FAIR      56  49  77 CALM      30.17R
TYNDALL AFB    CLOUDY    61  53  76 NE3       30.17S
APALACHICOLA   CLOUDY    66  62  87 E10G18    30.15S

STATION/POSITION SKY/WX   TEMP    WIND        PRES    WAVE   SWELL
                          AIR SEA DIR/SP/G            HT/PER HT/PER
                          (F)     (DEG/KT/KT) (MB)    (FT/S) (FT/S)
30.1N   87.6W              68     100/ 17/ 21 1020.4F   2/ 4
29.2N   88.2W                 70   70/  8/ 12 1020.5
28.8N   86.0W              69 73   90/ 16/ 19 1019.6R   4/ 6
PANAMA CITY BEAC           62 69  100/  7/ 12 1022.1R
TOWER C                    64      80/ 23/ 25 1021.0F

$$
FLZ011-016>038-118-127-128-134-139-239-211000-
NORTH FLORIDA

CITY           SKY/WX    TMP DP  RH WIND       PRES   REMARKS
MARIANNA       CLOUDY    59  49  69 E7        30.19S
TALLAHASSEE    CLOUDY    64  54  69 E12       30.19R
PERRY          CLOUDY    64  52  67 NE5       30.19S
LIVE OAK       CLOUDY    61  50  67 VRB6      30.20F
CROSS CITY     CLOUDY    62  57  84 NE7       30.17S
LAKE CITY      FAIR      55  50  82 NE6       30.18F
GAINESVILLE    CLOUDY    64  59  83 NE12      30.19S
WILLISTON        N/A     66  61  82 N7        30.16S
PALATKA        CLOUDY    64  64 100 N8        30.17S
MAYPORT NAS    CLOUDY    64  62  93 NE16G26   30.18S FOG
JACKSONVILLE   DRIZZLE   61  59  93 NE10      30.19F FOG
JAX NAS        LGT RAIN  64  62  93 NE15      30.19S
JAX CECIL      CLOUDY    61  61 100 NE7       30.19S
FERNANDINA BEA CLOUDY    64  58  81 NE15G22   30.19S
ST AUGUSTINE   CLOUDY    70  64  83 E14       30.17S
PALM COAST     CLOUDY    69  65  89 E9        30.15S

STATION/POSITION SKY/WX   TEMP    WIND        PRES    WAVE   SWELL
                          AIR SEA DIR/SP/G            HT/PER HT/PER
                          (F)     (DEG/KT/KT) (MB)    (FT/S) (FT/S)
SHELL POINT      NOT AVBL
KEATON BEACH               62      50/ 12/ 17 1021.4F
CEDAR KEY                  62      50/ 11/ 14 1021.0F
FERNANDINA                 64 66   20/  7/ 15 1023.6F
30.7N   81.3W                 66                N/A     6/ 6   2/11
MAYPORT                    64 65   40/ 17/ 23 1022.4R
31.4N   80.9W              65 64   70/ 17/ 19 1023.3S   5/ 6   2/16
ST AUGUSTINE               69 66  110/ 13/ 15 1021.4R

$$
FLZ040-043>046-052-053-057-058-063-144-211000-
INTERIOR CENTRAL FLORIDA

CITY           SKY/WX    TMP DP  RH WIND       PRES   REMARKS
OCALA          CLOUDY    63  60  90 VRB5      30.15F
LEESBURG       CLOUDY    63  62  97 N6        30.14S
SANFORD        CLOUDY    66  64  93 NE5       30.13S
ORLANDO EXEC   FAIR      68  65  90 N3        30.12S
ORLANDO INTL   CLOUDY    67  66  97 N6        30.12S
KISSIMMEE      FAIR      69  66  90 VRB3      30.13
WINTER HAVEN   FAIR      66  64  93 NE6       30.13S
LAKELAND       MOCLDY    64  63  94 NE7       30.12F
BARTOW         MOCLDY    66  66 100 N6        30.12S
SEBRING        CLOUDY    68  65  90 CALM      30.11R
OKEECHOBEE     FAIR      64  64 100 N3        30.09F FOG

$$
FLZ041-047-054-059-064-141-147-211000-
EAST CENTRAL FLORIDA

CITY           SKY/WX    TMP DP  RH WIND       PRES   REMARKS
DAYTONA BEACH  FAIR      71  66  84 E9        30.14S
DELAND         CLOUDY    63  63 100 N5        30.14S
JFK SPACE CTR  FAIR      73  70  93 E8        30.12R
CAPE CANAVERAL FAIR      73  68  82 E10       30.11R
PATRICK AFB    FAIR      75  70  86 E14       30.10S
MELBOURNE      MOCLDY    76  70  82 E6        30.11R
VERO BEACH     FAIR      74  68  81 E7        30.10S
FT PIERCE      FAIR      71  68  90 E6        30.10S
STUART         FAIR      75  66  73 E8        30.11S

STATION/POSITION SKY/WX   TEMP    WIND        PRES    WAVE   SWELL
                          AIR SEA DIR/SP/G            HT/PER HT/PER
                          (F)     (DEG/KT/KT) (MB)    (FT/S) (FT/S)
28.5N   80.2W              74 73   70/ 19/ 23 1019.6S   7/ 9   5/ 9
28.9N   78.5W              72 74   60/ 21/ 27 1021.1R   9/ 8   5/ 9
TRIDENT PIER               74 76   60/ 11/ 17 1021.1S
28.4N   80.5W                 75                N/A     4/ 4   2/11
27.5N   80.2W                 75                N/A     4/ 8   2/14

$$
FLZ050-056-061-142-242-148-248-149-249-151-251-155-255-
160-260-211000-
WEST CENTRAL FLORIDA

CITY           SKY/WX    TMP DP  RH WIND       PRES   REMARKS
CRYSTAL RIVER  CLOUDY    61  59  94 NE5       30.14S
INVERNESS      CLOUDY    63  63 100 NE5       30.15S FOG
BROOKSVILLE    CLOUDY    64  60  87 NE7       30.13F
CLEARWATER AIR FAIR      64  63  94 E6        30.10S
ST PETE CLEARW MOCLDY    68  65  90 E12       30.10S
TAMPA INTL     CLOUDY    67  62  84 NE8       30.10F
TAMPA EXEC     CLOUDY    64  63  94 CALM      30.12S FOG
PLANT CITY     CLOUDY    66  63  88 NE5       30.13F
MACDILL AFB    FAIR      67  63  87 NE10      30.09F
PETER O KNIGHT FAIR      66  66 100 NE12G20   30.10F
ST PETERSBURG  CLOUDY    70  67  90 NE17      30.09S
SARASOTA       FAIR      68  65  90 E13       30.07F
VENICE         FAIR      70  68  94 E13       30.07F

STATION/POSITION SKY/WX   TEMP    WIND        PRES    WAVE   SWELL
                          AIR SEA DIR/SP/G            HT/PER HT/PER
                          (F)     (DEG/KT/KT) (MB)    (FT/S) (FT/S)
27.3N   84.2W                 74                N/A     4/ 5
CLEARWATER BEACH           67 75   60/  9/ 13 1019.2F
MIDDLE TAMPA BAY           68      70/ 14/ 18 1019.1F
VENICE                     68 75   70/ 13/ 16 1018.2F

$$
FLZ066-069-070-075>078-162-262-165-265-211000-
SOUTHWEST FLORIDA AND KEYS

CITY           SKY/WX    TMP DP  RH WIND       PRES   REMARKS
PUNTA GORDA    FAIR      68  64  87 E10       30.09F
FT MYERS       FAIR      70  67  90 E6        30.07S
SOUTHWEST INTL FAIR      67  66  97 E5        30.08S
NAPLES         FAIR      66  64  93 E5        30.06S
MARCO ISLAND   FAIR      65  62  90 E5        30.08R
IMMOKALEE      CLOUDY    66  64  94 NE5       30.09R
MARATHON       MOCLDY    73  67  81 CALM      30.05S
KEY WEST NAS   FAIR      73  67  81 NE6       30.06R
KEY WEST INTL  FAIR      73  68  84 NE3       30.06R

STATION/POSITION SKY/WX   TEMP    WIND        PRES    WAVE   SWELL
                          AIR SEA DIR/SP/G            HT/PER HT/PER
                          (F)     (DEG/KT/KT) (MB)    (FT/S) (FT/S)
NAPLES                     70 79              1017.9R
26.0N   85.6W              75 79  100/  6/  8 1018.0
DRY TORTUGAS               73      70/  4/  6 1018.1S
SAND KEY                   74                 1017.8R
SOMBRERO KEY               76      10/  2/  5 1017.0R
LONG KEY                   76 79   50/  5/  7 1017.7R
MOLASSES REEF              77 78  100/  8/  9 1018.3

$$
FLZ067-068-071>074-168-172>174-211000-
SOUTHEAST FLORIDA

CITY           SKY/WX    TMP DP  RH WIND       PRES   REMARKS
W PALM BEACH   FAIR      75  67  76 E9        30.09R
FT LAUDER-EXEC FAIR      76  69  79 NE5       30.08R
FT LAUDERDALE  FAIR      76  71  85 SE7       30.07R
POMPANO BEACH  MOCLDY    76  71  85 E6        30.08R
PEMBROKE PINES FAIR      74  67  78 N3        30.09R
OPA LOCKA      FAIR      74  67  78 CALM      30.08R
MIAMI          FAIR      73  65  75 E6        30.08R
WEST KENDALL   FAIR      68  64  87 CALM      30.07R
HOMESTEAD      FAIR      70  65  85 N3        30.06S

STATION/POSITION SKY/WX   TEMP    WIND        PRES    WAVE   SWELL
                          AIR SEA DIR/SP/G            HT/PER HT/PER
                          (F)     (DEG/KT/KT) (MB)    (FT/S) (FT/S)
PORT EVERGLADES            77      80/  7/ 10 1018.4
VIRGINIA KEY               77 80   80/  6/  9 1017.6R
LAKE WORTH                 76 78   80/ 11/ 12 1019.7R
FOWEY ROCKS                76 78   80/  7/  8 1019.0R
SETTLEMENT POINT           76      60/ 19/ 21 1018.5R

$$





USA.gov is the U.S. government's official web portal to all federal, state and local government web resources and services.